Zurück zum Katalog

SCOUT B DEB

LostUNKNOWN
NORAD 28794·DEBRIS·🇺🇸 United States

Gestartet Aug 10, 1965 von Wallops Flight Facility

Loading…

Nächste Überflüge (nächste 24 Stunden)

TLE

VeraltetSource: Space-Track

Epoche: Jul 1, 2024, 05:28 UTC

1 28794U 65063D   24183.22798148  .00000130  00000-0  11269-2 0  9994
2 28794  69.2245 175.1450 0775329 345.8079  24.3375 11.81174033123135

Verfolge SCOUT B DEB in Echtzeit mit AllMySat

Download on the App Store